SCP
0 0 0 0 0 0 0 0 0 0 0 0 0 0 0 0 0 0 0 0 0 0 0 0 0 0 0 0 0 0 0 0 0 0 0 0 0 0
0 0 0 0 0 0 0 0 0 0 0 0 0 0 0 0 0 0 0 0 0 0 0 0 0 0 0 0 0 0 0 0 0 0 0 0 0 0
0 0 0 0 0 0 0 0 0 0 0 0 0 0 0 0 0 0 0 0 0 0 0 0 0 0 0 0 0 0 0 0 0 0 0 0 0 0
0 0 0 0 0 0 0 0 0 0 0 0 0 0 0 0 0 0 0 0 0 0 0 0 0 0 0 0 0 0 0 0 0 0 0 0 0 0
0 0 0 0 0 0 0 0 0 0 0 0 0 0 0 0 0 0 0 0 0 0 0 0 0 0 0 0 0 0 0 0 0 0 0 0 0 0
0 0 0 0 0 0 0 0 0 0 0 0 0 0 0 0 0 0 0 0 0 0 0 0 0 0 0 0 0 0 0 0 0 0 0 0 0 0
0 0 0 0 0 0 0 0 0 0 0 0 0 0 0 0 0 0 0 0 0 0 0 0 0 0 0 0 0 0 0 0 0 0 0 0 0 0
0 0 0 0 0 0 0 0 0 0 0 0 0 0 0 0 0 0 0 0 0 0 0 0 0 0 0 0 0 0 0 0 0 0 0 0 0 0
0 0 0 0 0 0 0 0 0 0 0 0 0 0 0 0 0 0 0 0 0 0 0 0 0 0 0 0 0 0 0 0 0 0 0 0 0 0
0 0 0 0 0 0 0 0 0 0 0 0 0 0 0 0 0 0 0 0 0 0 0 0 0 0 0 0 0 0 0 0 0 0 0 0 0 0
0 0 0 0 0 0 0 0 0 0 0 0 0 0 0 0 0 0 0 0 0 0 0 0 0 0 0 0 0 0 0 0 0 0 0 0 0 0
0 0 0 0 0 0 0 0 0 0 0 0 0 0 0 0 0 0 0 0 0 0 0 0 0 0 0 0 0 0 0 0 0 0 0 0 0 0
0 0 0 0 0 0 0 0 0 0 0 0 0 0 0 0 0 0 0 0 0 0 0 0 0 0 0 0 0 0 0 0 0 0 0 0 0 0
0 0 0 0 0 0 0 0 0 0 0 0 0 0 0 0 0 0 0 0 0 0 0 0 0 0 0 0 0 0 0 0 0 0 0 0 0 0
0 0 0 0 0 0 0 0 0 0 0 0 0 0 0 0 0 0 0 0 0 0 0 0 0 0 0 0 0 0 0 0 0 0 0 0 0 0
0 0 0 0 0 0 0 0 0 0 0 0 0 0 0 0 0 0 0 0 0 0 0 0 0 0 0 0 0 0 0 0 0 0 0 0 0 0
0 0 0 0 0 0 0 0 0 0 0 0 0 0 0 0 0 0 0 0 0 0 0 0 0 0 0 0 0 0 0 0 0 0 0 0 0 0
0 0 0 0 0 0 0 0 0 0 0 0 0 0 0 0 0 0 0 0 0 0 0 0 0 0 0 0 0 0 0 0 0 0 0 0 0 0
0 0 0 0 0 0 0 0 0 0 0 0 0 0 0 0 0 0 0 0 0 0 0 0 0 0 0 0 0 0 0 0 0 0 0 0 0 0
0 0 0 0 0 0 0 0 0 0 0 0 0 0 0 0 0 0 0 0 0 0 0 0 0 0 0 0 0 0 0 0 0 0 0 0 0 0
0 0 0 0 0 0 0 0 0 0 0 0 0 0 0 0 0 0 0 0 0 0 0 0 0 0 0 0 0 0 0 0 0 0 0 0 0 0
0 0 0 0 0 0 0 0 0 0 0 0 0 0 0 0 0 0 0 0 0 0 0 0 0 0 0 0 0 0 0 0 0 0 0 0 0 0
0 0 0 0 0 0 0 0 0 0 0 0 0 0 0 0 0 0 0 0 0 0 0 0 0 0 0 0 0 0 0 0 0 0 0 0 0 0
Wind_Speed_500mb
65 68 67 67 65 60 65 74 72 57 43 39 39 46 45 39 34 31 28 26 26 31 32 35 41 41 39 39 42 41 42 40 39 40 43 45 47 48
53 61 66 70 64 54 39 54 63 49 31 36 48 48 40 38 38 35 33 32 32 37 39 38 39 38 41 40 40 41 37 38 40 44 44 44 42 41
59 55 48 48 41 39 45 48 50 47 44 44 44 42 41 41 40 39 38 37 37 37 41 39 36 33 33 36 37 39 40 39 40 41 45 40 33 25
66 65 53 51 54 52 68 58 56 54 56 53 52 46 47 45 43 43 46 41 37 35 32 29 28 31 36 37 35 35 33 36 37 41 37 32 26 19
58 57 61 70 74 70 71 68 65 58 59 58 54 54 54 51 52 50 49 38 36 36 31 28 29 32 35 35 37 33 35 38 43 39 31 26 22 21
54 57 56 58 62 71 83 73 63 63 60 59 56 56 55 53 52 53 49 42 37 35 32 31 33 34 36 35 35 37 38 41 39 32 30 26 25 23
52 56 56 58 59 68 67 75 66 65 62 63 60 59 58 61 62 49 46 41 39 39 35 32 31 34 35 34 35 38 40 39 31 29 30 28 25 24
50 55 58 59 62 63 57 54 62 66 67 65 63 60 62 58 55 48 45 42 43 39 38 33 35 34 35 36 36 38 43 34 29 29 28 25 23 23
50 52 55 55 55 57 60 62 63 64 59 57 56 55 63 57 47 50 46 44 41 35 29 30 32 33 37 37 36 38 34 30 28 26 25 24 21 22
48 50 52 51 53 57 58 60 60 58 61 60 58 53 54 51 52 45 38 38 42 38 38 39 35 32 35 36 39 34 29 24 22 19 19 21 18 18
47 49 52 51 54 56 56 57 59 60 59 56 56 54 53 51 47 49 53 50 47 42 38 37 35 34 37 38 36 33 27 22 18 16 8 9 14 13
48 49 52 52 51 54 55 56 58 57 60 58 57 58 53 48 45 45 43 48 45 36 40 42 39 27 22 37 35 30 24 20 16 16 10 7 8 7
50 53 53 53 55 58 58 59 57 51 54 55 54 50 48 46 47 44 42 40 40 38 22 37 36 35 33 10 23 28 25 21 19 16 12 12 12 10
49 52 52 55 58 58 60 59 57 54 56 55 55 56 54 52 47 43 41 41 40 37 34 27 31 28 37 33 17 24 25 24 21 18 17 17 18 13
43 50 49 48 49 59 62 60 56 60 60 63 62 58 52 43 45 46 45 43 43 40 42 41 35 29 27 35 27 16 23 24 20 19 20 22 21 18
35 47 48 47 43 49 57 61 63 63 65 66 60 50 47 54 53 47 45 44 44 44 43 42 43 37 32 34 32 24 24 18 18 20 22 22 21 21
37 39 39 43 53 47 55 62 64 62 66 63 56 53 56 57 53 49 46 45 49 47 45 46 43 39 38 34 35 32 29 21 20 20 20 23 24 23
38 44 44 43 47 53 58 63 68 68 70 68 63 60 60 59 56 52 51 51 48 45 45 45 42 42 42 39 37 32 27 22 24 24 26 27 26 23
42 45 46 48 49 49 51 61 67 71 73 74 69 65 63 56 55 55 54 51 49 48 44 45 44 45 45 45 36 32 26 24 27 26 25 25 26 26
37 40 45 47 50 53 53 57 57 63 72 72 68 62 62 59 59 58 57 54 50 49 48 46 47 45 43 35 30 28 24 26 24 24 27 28 27 27
37 38 42 42 44 52 51 54 50 51 61 62 68 67 63 58 61 56 53 51 49 50 50 50 41 38 41 40 35 31 24 24 24 27 27 27 29 30
43 38 38 40 39 41 46 48 48 52 63 62 58 60 60 58 62 55 53 52 53 51 49 43 45 49 48 45 36 31 26 26 28 29 28 27 23 15
40 36 37 37 36 35 37 43 46 51 51 48 55 59 59 60 58 56 53 50 50 50 49 47 50 51 48 41 38 36 32 29 31 31 28 27 28 29
Wind_Direction_500mb
248 249 246 236 233 237 239 238 222 191 209 215 225 237 246 249 256 262 266 267 268 267 257 250 254 265 270 280 280 279 283 286 290 297 301 294 296 298
248 253 250 243 243 237 223 227 211 203 204 226 235 243 243 246 250 252 259 265 270 267 261 259 260 262 261 268 274 281 288 292 293 298 299 298 298 301
252 253 254 254 244 214 220 216 223 219 229 229 233 237 243 244 249 253 259 267 275 266 263 252 245 265 260 264 274 277 280 289 296 302 305 301 303 305
265 251 249 240 239 241 238 232 235 235 231 230 237 244 245 246 246 249 256 266 269 269 264 257 253 261 263 268 272 275 278 289 298 297 294 291 294 286
260 252 247 240 243 246 241 234 236 231 227 230 237 242 244 244 247 254 264 263 265 264 256 249 254 265 269 269 270 272 280 287 293 287 282 288 284 275
256 256 253 254 248 249 241 243 241 227 228 230 234 239 243 243 245 254 255 258 264 260 253 252 251 256 265 268 275 276 279 283 285 276 279 282 282 272
256 255 254 254 252 256 245 243 232 225 228 229 231 234 238 239 245 253 257 252 259 251 253 252 256 260 264 270 274 276 281 283 272 274 276 280 279 272
255 257 257 255 251 250 244 235 232 231 230 231 234 239 243 246 248 244 241 254 248 247 248 252 256 262 264 265 268 273 277 274 271 270 274 274 269 266
254 252 255 257 252 243 234 230 228 230 234 241 242 248 253 251 247 243 239 243 243 248 255 255 256 254 256 258 261 269 272 269 267 274 271 266 259 256
253 252 250 250 250 243 240 237 237 236 237 240 243 245 250 253 252 249 242 241 236 237 245 252 249 247 249 252 258 261 262 258 262 266 271 274 263 251
259 252 250 245 243 241 238 239 237 236 236 242 243 242 245 245 236 226 225 221 228 237 239 243 244 243 249 253 252 251 253 252 250 252 249 265 253 247
261 255 249 244 240 240 239 236 237 239 239 237 241 243 239 233 231 230 231 229 227 231 236 233 238 231 241 242 241 241 238 225 216 225 209 222 233 217
264 260 255 250 245 241 240 239 239 239 241 240 236 236 232 232 229 224 225 227 228 230 236 223 231 228 226 240 229 223 226 220 203 210 204 210 226 215
274 267 258 255 248 245 244 243 239 233 229 229 230 228 228 226 222 220 221 223 226 223 224 222 221 222 228 232 231 211 208 216 210 206 210 217 220 218
263 266 267 265 256 246 244 244 238 231 225 224 224 228 230 225 220 219 218 219 224 220 218 220 221 221 218 221 219 206 198 207 209 210 216 226 231 227
279 258 259 263 266 249 242 237 235 232 227 227 226 224 221 216 214 216 218 218 221 221 220 219 222 220 219 219 210 203 199 199 209 224 230 235 232 227
303 287 261 262 257 248 236 233 234 230 223 225 225 221 220 217 215 215 215 219 223 221 221 219 218 216 218 217 206 206 213 218 232 234 231 233 231 229
285 280 270 261 258 250 237 234 235 232 227 224 222 219 224 218 215 214 217 219 225 226 224 223 218 214 213 211 208 213 221 227 236 236 234 234 232 227
268 278 273 263 256 258 253 246 239 238 233 230 226 223 221 220 218 215 219 220 220 224 224 221 217 214 213 208 210 217 222 227 234 231 229 229 228 229
279 274 276 273 264 259 260 254 247 244 239 236 234 231 231 223 214 218 220 221 220 220 220 219 216 215 214 213 213 216 216 224 227 228 230 232 231 236
283 278 267 277 276 267 263 259 256 256 250 243 236 233 232 227 213 222 223 224 221 219 221 223 219 212 213 214 213 216 217 217 223 228 229 232 241 247
279 279 277 270 274 274 269 265 257 251 243 238 240 236 233 230 219 216 220 223 222 218 220 217 212 211 212 214 215 219 217 221 226 233 237 240 240 241
289 273 284 273 268 270 265 261 250 245 242 240 237 234 228 221 216 212 219 222 221 220 217 212 213 214 216 219 220 223 232 232 234 240 246 253 253 254
Wind_Speed_850mb
65 68 67 67 65 60 65 74 72 57 43 39 39 46 45 39 34 31 28 26 26 31 32 35 41 41 39 39 42 41 42 40 39 40 43 45 47 48
53 61 66 70 64 54 39 54 63 49 31 36 48 48 40 38 38 35 33 32 32 37 39 38 39 38 41 40 40 41 37 38 40 44 44 44 42 41
59 55 48 48 41 39 45 48 50 47 44 44 44 42 41 41 40 39 38 37 37 37 41 39 36 33 33 36 37 39 40 39 40 41 45 40 33 25
66 65 53 51 54 52 68 58 56 54 56 53 52 46 47 45 43 43 46 41 37 35 32 29 28 31 36 37 35 35 33 36 37 41 37 32 26 19
58 57 61 70 74 70 71 68 65 58 59 58 54 54 54 51 52 50 49 38 36 36 31 28 29 32 35 35 37 33 35 38 43 39 31 26 22 21
54 57 56 58 62 71 83 73 63 63 60 59 56 56 55 53 52 53 49 42 37 35 32 31 33 34 36 35 35 37 38 41 39 32 30 26 25 23
52 56 56 58 59 68 67 75 66 65 62 63 60 59 58 61 62 49 46 41 39 39 35 32 31 34 35 34 35 38 40 39 31 29 30 28 25 24
50 55 58 59 62 63 57 54 62 66 67 65 63 60 62 58 55 48 45 42 43 39 38 33 35 34 35 36 36 38 43 34 29 29 28 25 23 23
50 52 55 55 55 57 60 62 63 64 59 57 56 55 63 57 47 50 46 44 41 35 29 30 32 33 37 37 36 38 34 30 28 26 25 24 21 22
48 50 52 51 53 57 58 60 60 58 61 60 58 53 54 51 52 45 38 38 42 38 38 39 35 32 35 36 39 34 29 24 22 19 19 21 18 18
47 49 52 51 54 56 56 57 59 60 59 56 56 54 53 51 47 49 53 50 47 42 38 37 35 34 37 38 36 33 27 22 18 16 8 9 14 13
48 49 52 52 51 54 55 56 58 57 60 58 57 58 53 48 45 45 43 48 45 36 40 42 39 27 22 37 35 30 24 20 16 16 10 7 8 7
50 53 53 53 55 58 58 59 57 51 54 55 54 50 48 46 47 44 42 40 40 38 22 37 36 35 33 10 23 28 25 21 19 16 12 12 12 10
49 52 52 55 58 58 60 59 57 54 56 55 55 56 54 52 47 43 41 41 40 37 34 27 31 28 37 33 17 24 25 24 21 18 17 17 18 13
43 50 49 48 49 59 62 60 56 60 60 63 62 58 52 43 45 46 45 43 43 40 42 41 35 29 27 35 27 16 23 24 20 19 20 22 21 18
35 47 48 47 43 49 57 61 63 63 65 66 60 50 47 54 53 47 45 44 44 44 43 42 43 37 32 34 32 24 24 18 18 20 22 22 21 21
37 39 39 43 53 47 55 62 64 62 66 63 56 53 56 57 53 49 46 45 49 47 45 46 43 39 38 34 35 32 29 21 20 20 20 23 24 23
38 44 44 43 47 53 58 63 68 68 70 68 63 60 60 59 56 52 51 51 48 45 45 45 42 42 42 39 37 32 27 22 24 24 26 27 26 23
42 45 46 48 49 49 51 61 67 71 73 74 69 65 63 56 55 55 54 51 49 48 44 45 44 45 45 45 36 32 26 24 27 26 25 25 26 26
37 40 45 47 50 53 53 57 57 63 72 72 68 62 62 59 59 58 57 54 50 49 48 46 47 45 43 35 30 28 24 26 24 24 27 28 27 27
37 38 42 42 44 52 51 54 50 51 61 62 68 67 63 58 61 56 53 51 49 50 50 50 41 38 41 40 35 31 24 24 24 27 27 27 29 30
43 38 38 40 39 41 46 48 48 52 63 62 58 60 60 58 62 55 53 52 53 51 49 43 45 49 48 45 36 31 26 26 28 29 28 27 23 15
40 36 37 37 36 35 37 43 46 51 51 48 55 59 59 60 58 56 53 50 50 50 49 47 50 51 48 41 38 36 32 29 31 31 28 27 28 29
Wind_Direction_850mb
248 249 246 236 233 237 239 238 222 191 209 215 225 237 246 249 256 262 266 267 268 267 257 250 254 265 270 280 280 279 283 286 290 297 301 294 296 298
248 253 250 243 243 237 223 227 211 203 204 226 235 243 243 246 250 252 259 265 270 267 261 259 260 262 261 268 274 281 288 292 293 298 299 298 298 301
252 253 254 254 244 214 220 216 223 219 229 229 233 237 243 244 249 253 259 267 275 266 263 252 245 265 260 264 274 277 280 289 296 302 305 301 303 305
265 251 249 240 239 241 238 232 235 235 231 230 237 244 245 246 246 249 256 266 269 269 264 257 253 261 263 268 272 275 278 289 298 297 294 291 294 286
260 252 247 240 243 246 241 234 236 231 227 230 237 242 244 244 247 254 264 263 265 264 256 249 254 265 269 269 270 272 280 287 293 287 282 288 284 275
256 256 253 254 248 249 241 243 241 227 228 230 234 239 243 243 245 254 255 258 264 260 253 252 251 256 265 268 275 276 279 283 285 276 279 282 282 272
256 255 254 254 252 256 245 243 232 225 228 229 231 234 238 239 245 253 257 252 259 251 253 252 256 260 264 270 274 276 281 283 272 274 276 280 279 272
255 257 257 255 251 250 244 235 232 231 230 231 234 239 243 246 248 244 241 254 248 247 248 252 256 262 264 265 268 273 277 274 271 270 274 274 269 266
254 252 255 257 252 243 234 230 228 230 234 241 242 248 253 251 247 243 239 243 243 248 255 255 256 254 256 258 261 269 272 269 267 274 271 266 259 256
253 252 250 250 250 243 240 237 237 236 237 240 243 245 250 253 252 249 242 241 236 237 245 252 249 247 249 252 258 261 262 258 262 266 271 274 263 251
259 252 250 245 243 241 238 239 237 236 236 242 243 242 245 245 236 226 225 221 228 237 239 243 244 243 249 253 252 251 253 252 250 252 249 265 253 247
261 255 249 244 240 240 239 236 237 239 239 237 241 243 239 233 231 230 231 229 227 231 236 233 238 231 241 242 241 241 238 225 216 225 209 222 233 217
264 260 255 250 245 241 240 239 239 239 241 240 236 236 232 232 229 224 225 227 228 230 236 223 231 228 226 240 229 223 226 220 203 210 204 210 226 215
274 267 258 255 248 245 244 243 239 233 229 229 230 228 228 226 222 220 221 223 226 223 224 222 221 222 228 232 231 211 208 216 210 206 210 217 220 218
263 266 267 265 256 246 244 244 238 231 225 224 224 228 230 225 220 219 218 219 224 220 218 220 221 221 218 221 219 206 198 207 209 210 216 226 231 227
279 258 259 263 266 249 242 237 235 232 227 227 226 224 221 216 214 216 218 218 221 221 220 219 222 220 219 219 210 203 199 199 209 224 230 235 232 227
303 287 261 262 257 248 236 233 234 230 223 225 225 221 220 217 215 215 215 219 223 221 221 219 218 216 218 217 206 206 213 218 232 234 231 233 231 229
285 280 270 261 258 250 237 234 235 232 227 224 222 219 224 218 215 214 217 219 225 226 224 223 218 214 213 211 208 213 221 227 236 236 234 234 232 227
268 278 273 263 256 258 253 246 239 238 233 230 226 223 221 220 218 215 219 220 220 224 224 221 217 214 213 208 210 217 222 227 234 231 229 229 228 229
279 274 276 273 264 259 260 254 247 244 239 236 234 231 231 223 214 218 220 221 220 220 220 219 216 215 214 213 213 216 216 224 227 228 230 232 231 236
283 278 267 277 276 267 263 259 256 256 250 243 236 233 232 227 213 222 223 224 221 219 221 223 219 212 213 214 213 216 217 217 223 228 229 232 241 247
279 279 277 270 274 274 269 265 257 251 243 238 240 236 233 230 219 216 220 223 222 218 220 217 212 211 212 214 215 219 217 221 226 233 237 240 240 241
289 273 284 273 268 270 265 261 250 245 242 240 237 234 228 221 216 212 219 222 221 220 217 212 213 214 216 219 220 223 232 232 234 240 246 253 253 254